Regional Weather Roundup
Issued by NWS Northern Indiana

Home | Current Version | Previous Version | Graphics & Text | Print | Product List | Glossary On
Versions: 1 2 3 4 5 6 7 8 9 10 11 12 13 14 15 16 17 18 19 20 21 22 23 24 25 26 27 28 29 30 31 32 33 34 35 36 37 38 39 40 41 42 43 44 45 46 47 48 49 50
000
ASUS43 KIWX 241910
RWRIWX

KIWX WEATHER ROUNDUP
NATIONAL WEATHER SERVICE NORTHERN INDIANA
200 PM EST FRI FEB 24 2017

NOTE: "FAIR" INDICATES FEW OR NO CLOUDS BELOW 12,000 FEET WITH NO
SIGNIFICANT WEATHER AND/OR OBSTRUCTIONS TO VISIBILITY.

* THESE STATIONS ARE NOT UNDER NWS QUALITY CONTROL. THEY ALSO MAY NOT
  REPORT WEATHER SUCH AS PRECIPITATION OR FOG.

INZ001>027-242000-
NORTHERN INDIANA

CITY           SKY/WX    TMP DP  RH WIND       PRES   REMARKS
GARY*          CLOUDY    39  39 100 N8        29.45F FOG
VALPARAISO     CLOUDY    60  55  83 SW8G18    29.43F
MICHIGAN CITY* CLOUDY    46  46 100 W6        29.44F
LAPORTE*       CLOUDY    63  56  79 SW13      29.43F
KNOX*          CLOUDY    63  36  36 SW15G22   29.43F
SOUTH BEND     CLOUDY    63  56  78 S12       29.44F
ELKHART*       CLOUDY    64  55  72 S9        29.45F
GOSHEN         CLOUDY    64  54  69 S15       29.45F
MONTICELLO*    CLOUDY    66  55  68 S21       29.46F
LOGANSPORT*    CLOUDY    64  54  68 S23G29    29.48F
ROCHESTER*     CLOUDY    64  55  72 S12       29.47F
WARSAW*        CLOUDY    64  55  72 SW6G16    29.47F
ANGOLA*        CLOUDY    63  55  77 S16       29.47S
FORT WAYNE     CLOUDY    68  54  60 SW16      29.50R
HUNTINGTON*    CLOUDY    68  53  58 SW9G20    29.52R
PERU/GRISSOM   CLOUDY    66  57  72 SW15      29.47S
MARION*        LGT RAIN  64  54  71 S5G12     29.48F

$$
INZ028>050-242000-
CENTRAL INDIANA

CITY           SKY/WX    TMP DP  RH WIND       PRES   REMARKS
LAFAYETTE      CLOUDY    67  56  67 SW14G26   29.46F
KOKOMO*        LGT RAIN  66  55  67 SW15G24   29.51S
MUNCIE*        CLOUDY    73  51  46 SW15G30   29.52R
INDIANAPOLIS   CLOUDY    69  52  54 SW25G32   29.53S

$$
MIZ043>046-050>051-056>058-064>065-071>073-077>080-242000-
SOUTHWEST LOWER MICHIGAN

CITY           SKY/WX    TMP DP  RH WIND       PRES   REMARKS
BATTLE CREEK   CLOUDY    50  49  96 NE6       29.47F FOG
BENTON HARBOR  CLOUDY    57  53  86 CALM      29.42F FOG
COLDWATER*     CLOUDY    64  55  73 S7        29.48R
HILLSDALE*     LGT RAIN  63  54  72 CALM      29.46F
HOLLAND        LGT RAIN  41  39  93 E8        29.46S FOG
GRAND RAPIDS   LGT RAIN  39  37  92 E12       29.47F FOG
KALAMAZOO      LGT RAIN  53  50  89 NE3       29.47F FOG
STURGIS*       CLOUDY    62  56  80 S7        29.47R
THREE RIVERS*  CLOUDY    63  56  78 S10       29.46S

$$
OHZ001>008-015>018-024>025-242000-
NORTHWEST OHIO

CITY           SKY/WX    TMP DP  RH WIND       PRES   REMARKS
WAUSEON*       PTSUNNY   70  57  64 S17       29.50F
DEFIANCE       CLOUDY    68  54  60 S15       29.50F
FINDLAY        MOSUNNY   75  53  46 S28G33    29.53F
TOLEDO EXPRESS CLOUDY    70  55  59 S18G25    29.50F
TOLEDO METCALF PTSUNNY   73  54  51 SW23G32   29.52F
LIMA           CLOUDY    72  54  53 S21G36    29.53F

$$
AND FOR LAKE MICHIGAN COASTAL AND OPEN LAKE BUOY OBSERVATIONS

STATION/POSITION TEMP    WIND        PRES    VSBY  WAVE
                 AIR SEA DIR/SP/G                  HT/PER
                 (F)     (DEG/KT/KT) (MB)    (MI)  (FT/S)
CALUMET HARBOR    37     330/ 10/ 17  996.8F
MICHIGAN CITY     36     210/  9/ 10   N/A
BURNS HARBOR      37     260/  4/  6  998.0F

$$
&&




USA.gov is the U.S. government's official web portal to all federal, state and local government web resources and services.